www.pogodaiklimat.ru

Погода и климат >> Архив погоды >> Казахстан >> Исатай


ПОГОДА в Исатай

  • Прогноз погоды в Исатай
  • Монитор погоды в Исатай
  • Климат города

АРХИВ ПОГОДЫ в Исатай

Время (UTC), дата Ветер
(напр.,м/с)
 
Видим.   Явления Облачность Т
(С)
Тd
(С)
f
(%)
Тe
(С)
Тes
(С)
Комфортность P
(гПа)
Po
(гПа)
Тmin
(С)
Tmax
(С)
R
(мм)
R24
(мм)
S
(см)
03 15.09 СЗ 4 17 км ясно +17.2 -28.5 3 +17 +17 1016.7 1020.0 <0.5
06 15.09 СЗ 3 19 км ясно +24.3 -23.7 3 +21 +26 комфорт 1017.5 1020.7
09 15.09 СЗ 2 20 км ясно +27.7 -21.4 3 +23 +34 комфорт 1016.9 1020.1
15 15.09 ЮЗ 4 20 км ясно +24.4 -23.6 3 +21 +21 комфорт 1015.8 1019.0 +29.3
18 15.09 ЮЗ 3 19 км ясно +19.7 -26.8 3 +19 +19 1016.5 1019.8 +29.3
21 15.09 З 2 18 км ясно +16.1 -29.2 3 +16 +16 1016.6 1019.9
00 16.09 З 2 19 км ясно +14.7 -30.2 3 +15 +15 1017.5 1020.8
03 16.09 С 1 19 км ясно +15.5 -29.6 3 +17 +17 1018.3 1021.6 <0.5
06 16.09 СЗ 1 20 км ясно +27.3 -21.6 3 +23 +31 комфорт 1019.5 1022.7
09 16.09 З 3 20 км ясно +29.8 -20.0 3 +25 +34 комфорт 1019.3 1022.5
12 16.09 ЮЗ 5 20 км ясно +29.9 -19.9 3 +25 +28 комфорт 1018.8 1022.0
15 16.09 ЮЗ 2 18 км ясно +24.6 -23.5 3 +21 +21 комфорт 1019.3 1022.5 +30.7
18 16.09 ЮЗ 3 20 км ясно +20.2 -26.4 3 +19 +19 1019.7 1023.0 +30.7
21 16.09 З 3 20 км ясно +19.1 -27.2 3 +19 +19 1020.0 1023.3
00 17.09 З 2 19 км ясно +16.2 -29.1 3 +17 +17 1020.4 1023.7
03 17.09 СЗ 1 19 км ясно +15.6 -29.6 3 +17 +17 1021.1 1024.4 <0.5
06 17.09 СВ 2 20 км н/о +28.0 -21.2 3 +24 +24 комфорт 1021.9 1025.1
09 17.09 СВ 2 20 км ясно +31.3 -19.0 3 +27 +37 жарко 1021.4 1024.6
12 17.09 СВ 3 20 км ясно +32.4 -18.2 3 +28 +31 жарко 1020.3 1023.4
00 18.09 З 3 н/о ясно +17.6 -28.2 3 +18 +18 1020.3 1023.6
03 18.09 СЗ 2 20 км ясно +17.2 -28.5 3 +18 +18 1020.5 1023.8 <0.5
06 18.09 С 4 20 км ясно +30.3 -19.6 3 +26 +30 жарко 1021.2 1024.4
09 18.09 В 1 20 км ясно +33.3 -17.7 3 +28 +41 жарко 1020.4 1023.5
12 18.09 Ю 6 20 км ясно +32.5 -18.2 3 +28 +29 жарко 1019.4 1022.5
15 18.09 Ю 3 19 км ясно +26.2 -22.4 3 +22 +22 комфорт 1019.2 1022.4 +33.4
18 18.09 ЮВ 1 18 км ясно +21.6 -25.5 3 +19 +19 1019.6 1022.8 +33.4
21 18.09 В 5 20 км ясно +20.7 -26.1 3 +19 +19 1019.5 1022.8
00 19.09 В 4 20 км ясно +19.9 -26.6 3 +19 +19 1019.3 1022.6
03 19.09 В 4 19 км ясно +18.0 -27.9 3 +18 +18 1019.8 1023.1 <0.5
06 19.09 ЮВ 5 20 км ясно +29.7 -20.0 3 +25 +28 комфорт 1020.1 1023.3
09 19.09 ЮВ 6 19 км ясно +32.1 -18.4 3 +27 +31 жарко 1019.6 1022.7
12 19.09 ЮВ 7 19 км ясно +30.9 -19.2 3 +26 +27 жарко 1018.6 1021.7
15 19.09 В 3 19 км ясно +26.5 -22.2 3 +22 +22 комфорт 1018.1 1021.3 +32.3
18 19.09 В 5 20 км ясно +23.7 -24.1 3 +20 +20 1017.9 1021.1 +32.3
21 19.09 В 4 20 км ясно +20.1 -26.5 3 +19 +19 1017.6 1020.9
00 20.09 ЮВ 3 20 км ясно +19.7 -26.8 3 +19 +19 1017.4 1020.7
03 20.09 ЮВ 3 20 км ясно +18.2 -27.8 3 +18 +18 1017.9 1021.2 <0.5
06 20.09 ЮВ 7 20 км ясно +27.7 -21.4 3 +23 +25 комфорт 1018.8 1022.0
09 20.09 ЮВ 6 17 км ясно +30.5 -19.5 3 +26 +30 жарко 1018.5 1021.6
12 20.09 ЮВ 5 20 км ясно +30.4 -19.6 3 +26 +28 жарко 1018.4 1021.5
15 20.09 ЮВ 4 19 км ясно +24.8 -23.3 3 +21 +21 комфорт 1018.2 1021.4 +30.9
18 20.09 В 2 18 км ясно +21.7 -25.4 3 +19 +19 1018.3 1021.5 +30.9
21 20.09 В 4 20 км ясно +20.2 -26.4 3 +19 +19 1017.8 1021.1
00 21.09 В 3 20 км ясно +19.2 -27.1 3 +19 +19 1017.7 1021.0
03 21.09 В 4 18 км ясно +16.4 -29.0 3 +16 +16 1018.0 1021.3 <0.5
06 21.09 В 4 20 км ясно +26.6 -22.1 3 +22 +26 комфорт 1018.3 1021.5
09 21.09 ЮВ 6 20 км ясно +32.3 -18.3 3 +27 +31 жарко 1017.8 1020.9
12 21.09 ЮВ 6 20 км ясно +30.8 -19.3 3 +26 +28 жарко 1017.8 1020.9
15 21.09 Ю 2 20 км ясно +23.8 -24.0 3 +20 +20 1017.8 1021.0 +32.9
18 21.09 СВ 1 11 км ясно +18.6 -27.5 3 +19 +19 1017.9 1021.2 +32.9
21 21.09 В 1 15 км ясно +16.2 -29.1 3 +17 +17 1017.4 1020.7
00 22.09 С 2 20 км ясно +15.1 -29.9 3 +15 +15 1017.3 1020.6

 

Местоположение метеостанции Исатай (Атырауская область, Казахстан): широта 46.80 долгота 50.07 высота над уровнем моря м.

В архиве по умолчанию представлена погода в Исатай за последнюю неделю. Архивные данные за месяц целиком и за предыдущие месяцы, начиная с января 2011 года, Вы можете получить, выбрав интересующий диапазон дат из раскрывающегося списка и нажав кнопку "Ввод!".

Внимание! Время в таблицах - всемирное. Для получения местного времени необходимо прибавить поправку, которая в Исатай равна 5 ч.

Смотрите также архив погоды в соседних городах и на ближайших метеорологических станциях:

Погода в Ганюшкино (Атырауская область, Казахстан) (65 км)
Погода в Зеленге (Астраханская область, Россия) (131 км)
Погода в Атырау (Атырауская область, Казахстан) (145 км)
Погода в Махамбете (Атырауская область, Казахстан) (150 км)
Погода в Жанауштогане (Атырауская область, Казахстан) (155 км)
Погода в Досанге (Астраханская область, Россия) (163 км)
Погода в Астрахани (Астраханская область, Россия) (170 км)
Погода на Кулалы Острове (Мангистауская область, Казахстан) (199 км)
Погода в Индерборском (Атырауская область, Казахстан) (222 км)
Погода в Харабали (Астраханская область, Россия) (224 км)

Пояснения к столбцам:

Ветер - указаны скорость ветра в м/с - средняя за 10 мин, порывы в срок и между сроками (в фигурных скобках) и направление, откуда дует ветер: С - северный, СВ - северо-восточный, В - восточный, ЮВ - юго-восточный, Ю - южный, ЮЗ - юго-западный, З - западный, СЗ - северо-западный.
Видимость - горизонтальная дальность видимости в метрах или километрах. При видимости от 1 до 10 км при отсутствии осадков обычно наблюдается дымка, при ухудшении видимости до 1 км и менее - туман. В сухую погоду видимость может ухудшаться дымом, пылью или мглою.
Явления - указаны атмосферные явления, наблюдавшиеся в срок или в последний час перед сроком; фигурными скобками обозначены явления, наблюдавшиеся между сроками (за 1-3 часа до срока); квадратными скобками обозначены град или гололедные отложения с указанием их диаметра в мм.
Облачность - указаны через наклонную черту общая и нижняя облачность в баллах и высота нижней границы облаков в метрах; квадратными скобками обозначены формы облаков: Ci - перистые, Cs - перисто-слоистые, Cc - перисто-кучевые, Ac - высококучевые, As - высокослоистые, Sc - слоисто-кучевые, Ns - слоисто-дождевые, Cu - кучевые, Cb - кучево-дождевые. Подробнее классификацию облаков см. в Атласе облаков (PDF).
T - Температура воздуха - температура, измеренная на высоте 2 м над землей.
Td - Температура точки росы - температура, при понижении до которой содержащийся в воздухе водяной пар достигнет насыщения.
f - Относительная влажность воздуха - влажноcть воздуха, измеренная на высоте 2 м над землей.
Te - Эффективная температура - температура, которую ощущает одетый по сезону человек в тени. Характеристика душности погоды. При расчете учитывается влияние влажности воздуха и скорости ветра на теплоощущения человека.
Tes - Эффективная температура на солнце - температура, которую ощущает человек, с поправкой на солнечный нагрев. Характеристика знойности погоды. Зависит от высоты солнца над горизонтом, облачности и скорости ветра. Ночью, в пасмурную погоду, а также при ветре 12 м/с и более поправка равна нулю.
P - Атмосферное давление - приведенное к уровню моря атмосферное давление.
Po - Атмосферное давление - измеренное на уровне метеостанции атмосферное давление.
Tmin - Минимальная температура - минимум температуры воздуха на высоте 2 м над землей.
Tmax - Максимальная температура - максимум температуры воздуха на высоте 2 м над землей.
R - Количество осадков - Количество выпавших осадков за период времени, мм. При наведении курсора мыши на число - период времени, за который выпало указанное количество осадков.
R24 - Количество осадков - Количество выпавших осадков за 24 часа, мм.
S - Снежный покров - Высота снежного покрова, см. При наведении курсора мыши на число - состояние снежного покрова и степень покрытия местности в баллах.